Regional Weather Roundup
Issued by NWS Jackson, KY

Home | Current Version | Previous Version | Graphics & Text | Print | Product List | Glossary On
Versions: 1 2 3 4 5 6 7 8 9 10 11 12 13 14 15 16 17 18 19 20 21 22 23 24 25 26 27 28 29 30 31 32 33 34 35 36 37 38 39 40 41 42 43 44 45 46 47 48 49 50
000
ASUS43 KJKL 270505
RWRJKL

EAST KENTUCKY HOURLY WEATHER ROUNDUP
NATIONAL WEATHER SERVICE JACKSON KY
1200 AM EST SAT DEC 27 2014

NOTE: "FAIR" INDICATES FEW OR NO CLOUDS BELOW 12,000 FEET WITH
NO SIGNIFICANT WEATHER AND/OR OBSTRUCTIONS TO VISIBILITY.

* THESE REPORTS ARE NOT UNDER NWS QUALITY CONTROL AND MAY NOT
  REPORT WEATHER SUCH AS PRECIPITATION AND FOG.

KYZ079-080-083-085-087-088-110-112-115-119-120-270600
...EASTERN KENTUCKY...

CITY           SKY/WX    TMP DP  RH WIND       PRES   REMARKS
JACKSON        CLOUDY    47  25  42 SW5       30.21S
LONDON         CLOUDY    45  29  53 CALM      30.23F
SOMERSET*      CLOUDY    43  32  65 SE5       30.23F
MONTICELLO*    MOCLDY    42  35  76 CALM      30.24F
MIDDLESBORO*   CLOUDY    40  35  82 CALM      30.25F
HARLAN APT*    CLOUDY    45  30  57 CALM      30.24S
BLACK MTN*       N/A     45  12  26 S8          N/A
PIKEVILLE APT* CLEAR     46  27  46 CALM      30.22R
BIG SANDY*     CLOUDY    45  30  56 CALM      30.22S
MOREHEAD APT*  CLOUDY    43  34  70 SE5       30.23S
$$

KYZ035-036-041-042-044-050-067-078-099-270600
...CENTRAL KENTUCKY...

CITY           SKY/WX    TMP DP  RH WIND       PRES   REMARKS
MT STERLING*   CLOUDY    45  32  61 SW5       30.22S
FLEMING/MASON* CLOUDY    43  32  65 S7        30.21S
DANVILLE*      CLOUDY    43  34  70 S6        30.21S
RICHMOND*      CLOUDY    46  32  57 S5        30.21S
LEXINGTON      CLOUDY    46  33  60 S7        30.20S
FRANKFORT      MOCLDY    48  30  49 SW8       30.18S
$$

KYZ091>093-OHZ055-061-077-WVZ005-015-034-035-042-270600
...SOUTHERN OHIO/WEST VIRGINIA...

CITY           SKY/WX    TMP DP  RH WIND       PRES   REMARKS
COVINGTON      MOCLDY    42  31  64 S7        30.17F
COLUMBUS       PTCLDY    40  33  76 S3        30.20R
DAYTON         MOCLDY    45  34  65 S8        30.18R
WILMINGTON     CLOUDY    41  33  73 S5        30.18S
HUNTINGTON     CLOUDY    39  34  82 E3        30.20F
CHARLESTON     CLOUDY    38  33  82 CALM      30.21S
PINEVILLE*     MOCLDY    35  35  99 MISG      30.27S
BECKLEY        MOCLDY    38  24  57 CALM      30.21F
BLUEFIELD      CLOUDY    50   7  17 SE3       30.20F
$$

VAZ002-007-008-TNZ017-027-036-066-071-270600
...SOUTHWEST VIRGINIA/EAST TENNESSEE...

CITY           SKY/WX    TMP DP  RH WIND       PRES   REMARKS
WISE*          CLOUDY    45  23  42 SW7       30.23S
JONESVILLE*    CLOUDY    37  34  87 CALM      30.27F
ABINGDON*      CLOUDY    43  26  52 E9        30.23F
BRISTOL        CLOUDY    39  32  76 CALM      30.22F
KNOXVILLE      MOCLDY    38  34  85 CALM      30.26S
OAK RIDGE      MOCLDY    40  36  86 CALM      30.27S
CROSSVILLE     MOCLDY    45  34  65 VRB3      30.23F
NASHVILLE      CLOUDY    48  37  65 S5        30.21F
$$

...KEY TO REMARKS...
VSB - VISIBILITY IN MILES
WCI - WIND CHILL INDEX
HX  - HEAT INDEX

$$


USA.gov is the U.S. government's official web portal to all federal, state and local government web resources and services.